Overview Statistics Trail Chart Weather Telemetry Raw packets
 

This is the latest recevied weather packets stored in our database for station/object KF7SOJ. If no packets are shown the sender has not sent any weather packets the latest 10 day(s).

<< 77 78 79 80 81 82 83 >>
Time Temp. Humidity Pressure Rain* Wind** Luminosity Snow
1788057503 24.44° C 37% 927.2 hPa 0 mm - 0 W/m² -
1788057202 24.44° C 37% 926.7 hPa 0 mm - 0 W/m² -
1788056902 24.44° C 37% 926.6 hPa 0 mm - 0 W/m² -
1788056597 23.89° C 37% 926.3 hPa 0 mm - 0 W/m² -
1788056297 24.44° C 36% 926.3 hPa 0 mm - 0 W/m² -
1788055992 24.44° C 37% 926 hPa 0 mm - 0 W/m² -
1788055691 24.44° C 37% 926 hPa 0 mm - 1 W/m² -
1788055387 24.44° C 36% 925.9 hPa 0 mm - 2 W/m² -
1788055087 25° C 36% 925.9 hPa 0 mm - 3 W/m² -
1788054782 25° C 36% 925.7 hPa 0 mm - 4 W/m² -
1788054477 25° C 35% 925.8 hPa 0 mm - 5 W/m² -
1788054174 25° C 34% 925.7 hPa 0 mm - 7 W/m² -
1788053869 25° C 33% 925.7 hPa 0 mm - 9 W/m² -
1788053563 25.56° C 32% 925.7 hPa 0 mm - 12 W/m² -
1788053258 26.11° C 31% 925.9 hPa 0 mm - 15 W/m² -
1788052955 26.67° C 30% 925.8 hPa 0 mm - 19 W/m² -
1788052650 27.22° C 29% 925.8 hPa 0 mm - 29 W/m² -
1788052345 27.78° C 28% 925.7 hPa 0 mm - 35 W/m² -
1788052041 28.33° C 28% 925.8 hPa 0 mm - 55 W/m² -
1788051735 28.33° C 28% 925.8 hPa 0 mm - 62 W/m² -
1788051434 27.78° C 28% 925.9 hPa 0 mm - 71 W/m² -
1788051133 27.78° C 29% 926.1 hPa 0 mm - 72 W/m² -
1788050833 28.33° C 28% 926.1 hPa 0 mm - 69 W/m² -
1788050529 28.89° C 27% 926.1 hPa 0 mm - 90 W/m² -
1788050222 29.44° C 26% 926.1 hPa 0 mm - 110 W/m² -

* Rain latest hour (hover to see other rain measurements)
** Current wind speed in m/s (hover to see current wind gust speed)